SCP
0 0 0 0 0 0 0 0 0 0 0 0 0 0 0 0 0 0 0 0 0 0
0 0 0 0 0 0 0 0 0 0 0 0 0 0 0 0 0 0 0 0 0 0
0 0 0 0 0 0 0 0 0 0 0 0 0 0 0 0 0 0 0 0 0 0
0 0 0 0 0 0 0 0 0 0 0 0 0 0 0 0 0 0 0 0 0 0
0 0 0 0 0 0 0 0 0 0 0 0 0 0 0 0 0 0 0 0 0 0
0 0 0 0 0 0 0 0 0 0 0 0 0 0 0 0 0 0 0 0 0 0
0 0 0 0 0 0 0 0 0 0 0 0 0 0 0 0 0 0 0 0 0 0
0 0 0 0 0 0 0 0 0 0 0 0 0 0 0 0 0 0 0 0 0 0
0 0 0 0 0 0 0 0 0 0 0 0 0 0 0 0 0 0 0 0 0 0
0 0 0 0 0 0 0 0 0 0 0 0 0 0 0 0 0 0 0 0 0 0
0 0 0 0 0 0 0 0 0 0 0 0 0 0 0 0 0 0 0 0 0 0
0 0 0 0 0 0 0 0 0 0 0 0 0 0 0 0 0 0 0 0 0 0
0 0 0 0 0 0 0 0 0 0 0 0 0 0 0 0 0 0 0 0 0 0
0 0 0 0 0 0 0 0 0 0 0 0 0 0 0 0 0 0 0 0 0 0
Wind_Speed_500mb
68 69 67 64 61 60 59 60 58 62 59 58 58 57 56 55 53 53 51 52 48 46
68 70 66 61 60 60 57 55 55 56 58 58 59 59 57 57 55 53 51 49 48 45
62 66 66 63 61 58 56 55 54 56 55 57 58 58 58 56 54 53 52 50 47 43
54 60 62 62 60 57 55 55 53 55 55 56 58 58 57 55 54 54 52 48 45 42
46 51 56 58 56 54 53 52 51 53 54 55 56 57 57 57 56 53 51 47 44 41
39 45 48 50 50 50 51 50 49 51 51 54 54 55 55 53 51 48 43 40 39 37
33 36 40 43 44 46 48 49 48 48 49 51 50 51 51 50 47 42 41 40 38 36
26 31 35 37 39 42 45 47 45 45 47 47 46 46 46 44 43 43 44 42 38 34
21 25 29 32 33 37 43 46 45 46 46 48 47 45 43 42 43 43 41 38 35 33
18 21 24 27 29 34 40 44 44 44 44 44 43 42 41 41 41 40 37 34 32 29
16 18 21 23 26 31 37 42 43 42 41 42 43 43 44 43 41 38 36 33 31 28
13 14 17 20 23 29 35 41 41 40 42 44 46 45 45 45 44 41 37 34 30 25
11 12 14 18 24 29 35 40 41 43 44 48 49 47 41 42 42 41 37 31 26 23
14 13 14 18 23 30 38 45 49 52 53 51 46 38 36 37 35 34 34 28 23 20
Wind_Direction_500mb
239 241 245 247 245 241 238 237 236 230 228 226 224 222 222 223 224 223 221 224 230 238
240 241 245 248 247 243 241 240 236 234 230 226 223 223 224 224 223 224 226 229 236 241
244 244 245 246 247 246 243 239 235 232 230 226 224 223 223 224 224 225 227 231 236 236
244 244 245 246 247 245 243 240 236 232 229 226 223 222 223 223 225 226 229 232 233 232
244 243 244 245 246 245 241 238 235 232 229 225 223 222 223 223 225 227 230 230 230 227
241 242 242 244 245 244 239 234 233 230 227 226 222 220 221 223 226 227 225 226 224 225
241 243 243 244 244 240 235 231 229 229 225 224 222 220 220 219 216 216 216 215 217 220
239 241 242 243 242 237 231 227 228 226 222 221 220 218 217 214 211 209 211 212 215 220
233 239 241 242 239 232 225 223 222 219 218 217 214 212 211 212 211 210 212 213 213 220
224 231 237 239 234 226 220 217 216 214 213 213 211 207 205 206 208 211 210 212 218 222
215 226 231 230 226 221 215 211 211 210 208 204 201 203 204 204 204 203 203 207 213 222
206 218 223 223 216 212 210 206 205 203 197 193 193 202 205 202 198 198 199 204 211 221
193 207 213 210 207 204 200 201 195 187 186 189 193 203 198 201 202 199 200 201 208 217
180 188 195 200 200 197 191 188 182 180 178 186 199 199 190 194 200 204 200 198 195 177
Wind_Speed_850mb
68 69 67 64 61 60 59 60 58 62 59 58 58 57 56 55 53 53 51 52 48 46
68 70 66 61 60 60 57 55 55 56 58 58 59 59 57 57 55 53 51 49 48 45
62 66 66 63 61 58 56 55 54 56 55 57 58 58 58 56 54 53 52 50 47 43
54 60 62 62 60 57 55 55 53 55 55 56 58 58 57 55 54 54 52 48 45 42
46 51 56 58 56 54 53 52 51 53 54 55 56 57 57 57 56 53 51 47 44 41
39 45 48 50 50 50 51 50 49 51 51 54 54 55 55 53 51 48 43 40 39 37
33 36 40 43 44 46 48 49 48 48 49 51 50 51 51 50 47 42 41 40 38 36
26 31 35 37 39 42 45 47 45 45 47 47 46 46 46 44 43 43 44 42 38 34
21 25 29 32 33 37 43 46 45 46 46 48 47 45 43 42 43 43 41 38 35 33
18 21 24 27 29 34 40 44 44 44 44 44 43 42 41 41 41 40 37 34 32 29
16 18 21 23 26 31 37 42 43 42 41 42 43 43 44 43 41 38 36 33 31 28
13 14 17 20 23 29 35 41 41 40 42 44 46 45 45 45 44 41 37 34 30 25
11 12 14 18 24 29 35 40 41 43 44 48 49 47 41 42 42 41 37 31 26 23
14 13 14 18 23 30 38 45 49 52 53 51 46 38 36 37 35 34 34 28 23 20
Wind_Direction_850mb
239 241 245 247 245 241 238 237 236 230 228 226 224 222 222 223 224 223 221 224 230 238
240 241 245 248 247 243 241 240 236 234 230 226 223 223 224 224 223 224 226 229 236 241
244 244 245 246 247 246 243 239 235 232 230 226 224 223 223 224 224 225 227 231 236 236
244 244 245 246 247 245 243 240 236 232 229 226 223 222 223 223 225 226 229 232 233 232
244 243 244 245 246 245 241 238 235 232 229 225 223 222 223 223 225 227 230 230 230 227
241 242 242 244 245 244 239 234 233 230 227 226 222 220 221 223 226 227 225 226 224 225
241 243 243 244 244 240 235 231 229 229 225 224 222 220 220 219 216 216 216 215 217 220
239 241 242 243 242 237 231 227 228 226 222 221 220 218 217 214 211 209 211 212 215 220
233 239 241 242 239 232 225 223 222 219 218 217 214 212 211 212 211 210 212 213 213 220
224 231 237 239 234 226 220 217 216 214 213 213 211 207 205 206 208 211 210 212 218 222
215 226 231 230 226 221 215 211 211 210 208 204 201 203 204 204 204 203 203 207 213 222
206 218 223 223 216 212 210 206 205 203 197 193 193 202 205 202 198 198 199 204 211 221
193 207 213 210 207 204 200 201 195 187 186 189 193 203 198 201 202 199 200 201 208 217
180 188 195 200 200 197 191 188 182 180 178 186 199 199 190 194 200 204 200 198 195 177